Погода в Радошковичах

Беларусь     54°09′22″N   27°14′32″E
темп.,
°C
ветер,
м/с
пор.,
м/с
влажн.,
%
обл.,
%
осадки,
мм/ч
давл.,
гПа
погр.,
м
21 апреля, ср
ср2100:00+3в249537 0.0 101279
03:00+3юв119255 0.0 101120
06:00+2з11946 0.0 101010
09:00+6з1174100 0.0 1010244
12:00+8юз236163 0.0 1009777
15:00+12зюз345297 0.0 10081724
18:00+12зюз355991 0.1 10081176
21:00+8ююз348116 0.9 100950
22 апреля, чт
чт2200:00+6юз368418 0.0 100981
03:00+6ююз348381 0.0 100966
06:00+6ю378697 0.0 1008148
09:00+10ююз5107196 0.0 1008495
12:00+12юз686141 0.6 10081473
15:00+11з8106695 1.4 10091491
18:00+9юз5963100 0.1 10101469
21:00+6зюз3962100 0.1 1011386
23 апреля, пт
пт2300:00+4юз3874100 0.0 1012274
03:00+2юз49835 0.0 1012277
06:00+1юз410923 0.0 1013311
09:00+4зюз69685 0.0 1013908
12:00+6зюз685594 0.1 10131712
15:00+8зюз6850100 0.9 10131916
18:00+8зюз68475 0.3 10132100
21:00+3зюз347637 0.5 101473
24 апреля, сб
сб2400:00+1з388915 0.0 1015283
03:00+1з598598 0.0 1014740
06:00+1з5993100 0.2 1013659
09:00+2з6883100 0.6 1014833
12:00+3зсз6889100 0.6 1014819
15:00+5зсз6868100 1.3 10131312
18:00+5з5767100 0.9 10131231
21:00+2з388465 1.6 1013195
25 апреля, вс
вс2500:00−1зюз389018 0.0 1013192
03:00−2зюз49905 0.0 1013243
06:00−3юз49937 0.0 1012299
09:00+1зюз5682100 0.0 1012714
12:00+3з3472100 0.1 10121017
15:00+3зсз5691100 0.6 1012586
18:00+3сз358372 0.6 1013567
21:00+1з378889 0.6 1014153